Flag for U.S.A. Weather past 2 weeks in New Orleans, Louisiana, U.S.A.

Now
86 °F

Sunny.


Feels Like: 91 °F
Forecast: 74 / 85 °F
Wind: 13 mph from Southeast

Location: Lakefront Airport

Current Time: May 30, 2015 at 3:51:27 PM

Latest Report: May 30, 2015 at 2:53 PM


Visibility: 10 mi

Pressure: 30.02 "Hg

Humidity: 59%

Dew point: 70 °F

Location of New OrleansLocation

Historic Weather in New Orleans — Graph

°F

New Orleans temperature yesterday

Maximum temperature yesterday: 89 °F (at 12:53 PM)
Minimum temperature yesterday: 78 °F (at 1:53 AM)
Average temperature yesterday: 83 °F

Past Weeks' High & Low Weather Summary

 TemperatureHumidityPressure
High90 °F (May 16, 1:53 PM)87% (May 26, 5:01 AM)30.20 "Hg (May 26, 5:01 AM)
Low70 °F (May 22, 7:53 AM)46% (May 28, 4:53 PM)29.94 "Hg (May 20, 5:53 PM)
Average82 °F70%30.06 "Hg
* Reported May 15 1:53 PM — May 30 1:53 PM, New Orleans, Weather by CustomWeather, © 2015

Note: Actual official high and low records may vary slightly from our data, if they occured in-between our weather recording intervals... More about our weather records

Advertising

New Orleans weather history for previous 24 hours

 ConditionsComfort  
Time TempWeatherWind HumidityBarometerVisibility
1:53 PM
Sat, May 30
86 °FSunny.14 mph59%30.03 "Hg10 mi
12:53 PM81 °FScattered clouds.6 mph69%30.05 "Hg10 mi
11:53 AM81 °FBroken clouds.8 mph67%30.06 "Hg10 mi
10:53 AM86 °FPartly sunny.6 mph57%30.06 "Hg10 mi
10:00 AM85 °FScattered clouds.3 mph59%30.08 "Hg10 mi
8:53 AM85 °FBroken clouds.5 mph63%30.06 "Hg10 mi
7:53 AM82 °FPassing clouds.3 mph72%30.05 "Hg10 mi
6:53 AM79 °FClear.3 mph82%30.04 "Hg9 mi
5:53 AM78 °FClear.5 mph82%30.03 "Hg10 mi
4:53 AM78 °FClear.3 mph79%30.02 "Hg10 mi
3:53 AM78 °FClear.5 mph76%30.01 "Hg10 mi
2:53 AM78 °FClear.No wind76%30.01 "Hg10 mi
1:53 AM78 °FClear.5 mph76%30.02 "Hg10 mi
12:53 AM79 °FClear.3 mph74%30.03 "Hg10 mi
11:53 PM
Fri, May 29
79 °FClear.5 mph77%30.04 "Hg10 mi
10:53 PM80 °FClear.6 mph74%30.04 "Hg10 mi
9:53 PM80 °FPassing clouds.7 mph69%30.03 "Hg10 mi
8:53 PM81 °FSunny.12 mph65%30.02 "Hg10 mi
7:53 PM83 °FSunny.10 mph59%30.02 "Hg10 mi
6:53 PM84 °FSunny.10 mph61%30.02 "Hg10 mi
5:53 PM84 °FSunny.13 mph61%30.01 "Hg10 mi
4:53 PM85 °FSunny.12 mph57%30.02 "Hg10 mi
3:53 PM88 °FPartly sunny.16 mph55%30.03 "Hg10 mi
Weather by CustomWeather, © 2015

See weather overviewHow to use our weather pages